Wind_Speed
21 22 30 26 25 22 14 22 25 21 22 21 26 23 21 21 21 19 20 20 23 29 31 29 29 30 29 26 26 24 25 25 23 20 19 16 14 14 12 9 7 5 4 4
18 30 24 22 20 22 23 18 19 26 23 20 24 26 19 18 20 21 20 21 24 27 32 32 31 32 32 28 26 25 23 23 23 21 20 18 16 13 11 9 8 5 4 4
27 13 25 24 24 22 24 23 19 20 20 25 22 27 26 28 20 21 20 20 22 28 31 33 32 32 33 30 27 24 23 22 24 23 22 21 19 16 15 15 10 7 6 6
27 25 11 26 25 23 24 22 21 18 24 26 27 26 33 24 29 25 23 24 24 26 30 30 31 33 33 33 29 27 25 23 24 25 24 22 20 17 14 11 9 8 7 5
29 28 30 22 27 25 26 17 20 22 21 24 25 31 27 31 29 27 26 28 27 26 26 28 28 27 30 32 31 29 28 25 25 25 26 24 23 18 15 13 15 12 8 7
22 25 25 32 23 24 24 21 20 21 24 24 33 31 31 31 32 30 31 30 29 29 28 29 24 25 30 32 33 33 31 28 27 26 27 26 25 22 19 18 16 14 11 9
19 26 25 24 27 27 20 26 22 18 19 19 33 37 27 26 30 31 34 32 30 30 30 30 31 30 26 30 32 32 32 31 29 29 29 28 27 25 23 20 19 16 13 11
18 22 28 27 28 30 30 31 24 21 16 19 32 37 38 24 15 24 34 34 30 30 30 31 32 31 26 24 28 32 32 31 32 31 30 30 29 28 26 24 22 20 15 13
14 23 3 31 27 28 32 36 32 31 29 26 30 34 29 36 29 18 33 31 29 30 30 30 31 32 31 27 26 26 31 31 33 32 31 32 31 31 30 28 25 23 21 18
11 17 12 17 21 24 33 25 34 35 23 23 25 25 33 33 31 34 20 24 23 28 28 30 30 32 34 31 28 26 26 29 30 31 32 31 33 33 32 31 29 26 24 21
13 14 23 16 17 27 28 32 26 29 38 18 15 19 21 30 32 28 35 24 27 26 28 27 28 31 33 33 33 30 28 29 33 35 32 34 33 34 35 34 32 30 27 24
7 18 24 26 16 23 32 30 37 29 29 37 30 23 2 21 27 22 29 32 27 24 25 25 25 29 32 34 33 30 30 31 31 34 34 33 33 33 36 37 34 32 30 27
10 18 22 24 24 22 25 28 25 40 34 32 26 27 5 11 11 16 21 24 22 23 25 26 24 28 31 33 32 31 30 30 29 32 33 34 36 35 36 38 36 34 31 28
12 15 21 23 11 9 14 33 30 29 34 37 33 30 16 13 17 13 11 13 12 15 21 23 22 25 26 29 29 32 33 32 30 31 34 33 34 36 36 37 36 35 32 30
16 22 22 25 24 17 17 16 17 23 28 27 30 30 29 9 21 17 19 11 10 15 6 18 21 22 24 26 27 30 33 30 31 28 30 33 31 33 34 35 36 36 34 32
14 20 19 24 21 22 24 23 23 24 27 27 29 24 18 11 3 4 7 8 11 6 7 9 24 25 23 25 25 32 32 30 31 31 25 27 31 31 33 34 35 36 35 34
15 12 16 24 21 26 32 30 28 28 31 30 33 26 22 16 15 9 11 19 21 17 16 16 17 26 33 23 24 29 32 36 34 35 32 30 26 30 32 33 34 35 36 35
21 17 13 16 15 17 23 22 21 26 28 33 33 32 28 22 17 14 7 21 26 22 19 15 19 19 24 27 23 25 30 39 41 37 33 33 29 26 28 33 34 35 35 36
21 21 15 14 21 17 14 13 14 16 19 15 31 31 26 20 22 27 15 28 35 33 27 22 19 20 22 26 29 28 28 36 45 42 35 32 28 27 28 30 34 35 34 35
21 23 24 21 17 16 5 11 13 14 20 17 19 22 24 15 9 10 27 38 43 39 36 30 25 31 33 20 28 32 30 28 39 44 41 36 32 28 25 25 29 32 34 32
12 23 27 26 23 22 4 8 8 9 12 24 27 32 35 38 33 30 25 33 38 37 34 31 31 30 33 29 28 33 32 29 26 42 48 42 37 31 26 24 26 28 30 32
8 9 19 26 27 27 15 15 11 14 21 22 26 30 30 35 35 37 31 30 33 35 33 32 32 30 34 33 36 32 34 33 30 34 44 47 44 36 34 27 26 29 30 31
5 6 10 10 19 16 21 19 23 24 28 24 26 25 28 31 35 34 31 36 34 35 32 32 32 30 27 30 33 36 31 37 37 33 43 42 45 44 38 32 27 31 31 33
12 8 14 22 21 23 22 23 27 30 31 30 25 27 28 31 30 30 30 35 36 33 31 31 31 29 28 29 31 40 46 43 41 38 41 44 44 49 43 37 31 30 32 33
12 15 19 18 16 29 25 29 34 34 31 31 26 31 28 30 26 28 29 34 32 31 27 27 30 28 29 28 32 39 47 50 47 40 42 46 44 47 48 42 37 36 36 36
16 13 19 17 13 15 16 19 21 26 26 27 29 27 25 27 25 26 27 33 32 31 28 29 28 27 26 29 33 38 42 45 45 43 43 46 44 44 46 44 42 41 40 37
Wind_Direction
210 207 211 213 218 227 244 233 230 222 214 219 222 220 227 178 181 186 188 190 189 192 194 198 191 198 204 204 200 201 201 201 200 197 191 195 193 192 189 191 197 174 174 171
214 221 218 220 225 227 231 238 243 226 218 224 223 228 217 208 187 188 191 191 191 190 194 199 194 200 206 208 203 201 203 205 202 201 194 194 199 197 191 200 193 208 192 183
215 228 226 222 225 227 228 230 233 232 222 223 229 233 215 202 215 195 194 199 195 192 196 199 200 200 206 210 208 205 205 204 205 204 201 199 201 191 189 218 193 208 214 197
227 222 218 221 226 224 230 228 229 235 229 215 223 243 225 204 217 199 194 202 196 193 196 203 205 207 207 210 212 211 207 208 205 207 207 203 210 211 203 197 211 215 223 216
229 228 228 230 228 226 231 224 229 230 236 240 227 225 242 213 204 210 206 203 202 199 198 201 211 220 219 215 215 216 213 210 212 208 211 207 210 214 210 201 220 222 215 218
237 232 234 230 232 226 230 228 230 229 231 238 231 233 226 218 212 209 210 208 205 205 205 204 212 213 217 218 220 219 218 215 214 214 214 211 212 214 214 212 219 220 224 216
239 233 230 225 225 221 226 215 219 219 225 233 225 233 236 219 209 212 210 209 211 207 206 206 205 209 217 222 222 224 224 221 218 217 218 215 213 217 222 222 219 221 227 228
266 222 226 222 220 220 218 210 215 211 216 226 227 219 227 218 217 212 213 209 213 210 210 208 207 212 222 222 225 226 226 222 224 223 221 220 217 216 221 222 220 220 218 228
274 258 284 220 224 219 218 221 224 245 244 239 218 224 229 227 224 232 218 206 202 209 210 214 212 211 218 223 228 231 231 224 222 226 224 223 221 220 221 223 222 224 221 219
243 273 247 222 224 221 231 228 223 237 247 252 233 223 212 217 221 220 223 212 207 204 213 215 215 216 215 222 226 229 230 228 228 230 229 227 226 223 223 223 223 225 224 224
237 248 240 231 221 229 230 240 240 235 228 244 246 228 231 214 215 215 219 210 212 216 216 216 218 217 219 217 220 224 229 227 222 224 228 229 227 225 223 223 224 225 226 224
252 252 245 236 236 238 233 240 230 235 227 231 246 237 327 212 207 216 214 216 218 217 215 220 221 218 216 214 218 225 232 232 226 227 227 228 228 228 225 224 223 225 228 227
266 242 247 242 244 244 241 233 237 227 240 227 223 231 176 191 188 206 211 206 211 220 218 216 218 214 212 215 217 222 227 230 229 228 228 227 226 225 225 225 225 226 229 230
258 251 262 266 258 292 258 231 230 239 236 234 232 221 186 172 179 169 170 175 190 199 205 200 215 210 212 215 225 223 228 229 231 231 229 229 224 224 225 227 226 226 227 230
254 257 254 259 266 261 257 256 236 237 237 255 241 227 225 267 205 189 214 228 213 216 195 216 206 214 222 223 231 225 226 228 232 233 230 227 225 224 224 224 225 226 227 229
249 258 267 259 259 247 249 240 241 242 243 252 249 255 230 238 215 212 221 226 226 236 223 211 190 192 210 222 231 222 221 223 228 233 231 228 225 224 225 223 223 226 228 230
264 260 261 263 247 250 246 236 236 240 240 242 243 235 240 233 261 258 253 239 226 223 230 227 207 206 207 206 228 220 223 220 223 228 230 227 225 224 226 226 225 226 229 230
249 255 271 274 264 258 241 232 243 240 240 236 242 243 242 262 249 239 294 265 246 246 242 242 230 220 220 212 207 238 229 220 221 226 229 228 229 224 224 226 227 227 229 232
239 247 247 259 259 251 238 216 210 216 217 249 236 234 240 259 259 236 269 266 257 260 257 251 243 230 235 228 222 212 232 228 221 223 224 222 223 221 225 228 227 227 229 231
233 234 244 248 263 255 245 233 248 243 232 229 207 214 223 242 251 240 244 254 257 257 256 254 245 218 243 226 228 228 230 231 225 224 225 223 222 220 223 228 231 231 232 234
253 237 236 235 246 254 238 259 258 232 226 223 227 222 227 236 237 227 232 243 246 249 252 252 246 240 229 231 235 228 230 230 232 223 224 222 221 223 223 224 224 228 230 233
284 250 230 234 242 249 267 277 260 257 250 246 235 245 248 239 241 237 230 239 244 249 244 244 245 248 237 234 237 231 228 229 231 227 221 225 223 225 225 223 221 221 226 230
284 292 271 244 236 248 251 272 261 265 269 265 262 248 251 247 246 251 240 240 242 245 242 240 242 244 243 244 240 242 232 232 231 228 219 221 221 223 224 225 230 228 226 228
343 315 322 272 255 255 260 265 268 263 261 267 268 275 255 251 250 248 238 239 241 245 249 249 243 240 242 244 244 240 239 233 230 224 223 219 219 219 222 225 225 223 226 225
330 337 326 310 269 255 259 262 269 273 262 254 257 262 252 248 250 241 231 231 235 241 246 251 250 237 238 242 246 237 236 240 234 222 223 215 217 218 218 222 226 233 232 233
339 337 344 331 309 290 274 258 253 253 257 255 253 253 241 240 236 234 220 225 227 231 234 236 245 246 236 239 239 231 226 225 226 221 219 212 214 213 212 217 224 228 220 216
Height
3128 3132 3130 3135 3139 3141 3140 3140 3141 3141 3145 3147 3148 3150 3139 3148 3157 3160 3162 3164 3169 3174 3178 3180 3184 3186 3190 3194 3196 3200 3203 3206 3210 3214 3217 3221 3223 3225 3228 3230 3230 3232 3233 3234
3130 3125 3131 3135 3137 3139 3139 3140 3138 3140 3142 3143 3144 3144 3144 3150 3151 3154 3159 3162 3167 3172 3174 3177 3179 3183 3187 3191 3194 3197 3201 3204 3209 3213 3216 3219 3222 3224 3228 3229 3230 3231 3232 3233
3123 3126 3128 3131 3133 3135 3137 3138 3139 3139 3140 3141 3142 3140 3140 3144 3155 3156 3157 3161 3165 3168 3172 3175 3175 3179 3184 3188 3192 3195 3199 3203 3207 3211 3214 3217 3221 3224 3226 3229 3229 3230 3231 3233
3121 3124 3125 3127 3129 3133 3133 3136 3138 3138 3137 3137 3140 3134 3134 3137 3137 3152 3153 3159 3163 3165 3169 3172 3174 3176 3180 3184 3189 3193 3196 3200 3204 3209 3212 3216 3219 3222 3225 3228 3229 3229 3231 3233
3115 3119 3121 3123 3125 3129 3130 3134 3136 3137 3136 3135 3132 3135 3126 3131 3137 3143 3150 3155 3160 3162 3164 3167 3169 3173 3178 3181 3185 3190 3193 3197 3202 3206 3210 3214 3217 3221 3223 3227 3228 3230 3231 3233
3112 3115 3116 3118 3123 3125 3129 3132 3133 3134 3135 3130 3129 3127 3124 3126 3132 3139 3146 3151 3156 3159 3162 3165 3167 3171 3173 3177 3181 3185 3189 3193 3198 3203 3206 3211 3215 3219 3222 3224 3226 3229 3231 3232
3108 3108 3111 3114 3117 3121 3124 3126 3126 3127 3124 3117 3124 3125 3118 3123 3128 3134 3138 3146 3151 3155 3159 3161 3164 3165 3168 3172 3176 3180 3185 3189 3194 3199 3203 3207 3212 3216 3220 3222 3225 3227 3230 3231
3101 3100 3104 3106 3109 3113 3116 3117 3114 3111 3108 3109 3117 3112 3116 3122 3126 3126 3131 3139 3145 3150 3154 3157 3159 3161 3164 3167 3171 3175 3179 3186 3190 3194 3200 3204 3208 3213 3216 3220 3223 3226 3229 3231
3100 3096 3097 3100 3106 3109 3109 3111 3113 3110 3103 3100 3101 3110 3116 3119 3123 3124 3125 3132 3136 3144 3150 3153 3155 3157 3159 3162 3166 3170 3175 3180 3184 3190 3195 3200 3204 3208 3212 3216 3220 3223 3225 3229
3103 3101 3096 3098 3102 3102 3103 3108 3110 3107 3101 3094 3092 3094 3103 3111 3116 3123 3126 3127 3134 3137 3144 3149 3152 3153 3155 3157 3161 3166 3170 3175 3181 3185 3190 3195 3200 3204 3208 3212 3216 3219 3222 3225
3103 3103 3098 3099 3098 3101 3104 3100 3101 3100 3102 3095 3093 3092 3098 3103 3111 3116 3122 3127 3132 3136 3140 3145 3148 3150 3150 3154 3156 3160 3164 3169 3174 3178 3184 3189 3194 3199 3203 3207 3212 3215 3218 3221
3101 3098 3096 3095 3096 3098 3098 3097 3099 3096 3095 3096 3095 3093 3094 3097 3106 3112 3118 3123 3129 3133 3137 3140 3143 3145 3147 3148 3151 3155 3159 3163 3168 3173 3178 3183 3189 3193 3198 3201 3206 3210 3214 3217
3099 3096 3094 3093 3096 3093 3092 3093 3092 3094 3092 3089 3093 3094 3097 3100 3104 3110 3114 3120 3125 3127 3130 3136 3138 3141 3142 3143 3146 3150 3153 3157 3162 3167 3172 3176 3181 3186 3191 3196 3201 3206 3210 3214
3096 3095 3091 3083 3088 3087 3085 3088 3089 3088 3086 3087 3087 3092 3095 3101 3105 3106 3107 3109 3112 3117 3121 3128 3133 3137 3138 3140 3141 3145 3149 3154 3157 3161 3165 3169 3174 3180 3185 3191 3196 3201 3205 3209
3096 3092 3091 3087 3086 3088 3086 3084 3083 3087 3086 3085 3085 3090 3094 3100 3102 3100 3104 3108 3111 3115 3120 3124 3129 3135 3136 3136 3137 3141 3145 3149 3153 3156 3159 3164 3170 3175 3179 3185 3190 3195 3199 3204
3090 3089 3088 3085 3085 3083 3084 3085 3086 3086 3087 3085 3086 3087 3087 3089 3096 3103 3104 3104 3109 3114 3115 3117 3120 3125 3131 3133 3133 3135 3140 3145 3149 3151 3155 3160 3164 3169 3174 3179 3184 3189 3193 3197
3088 3086 3086 3081 3081 3080 3078 3079 3081 3084 3085 3085 3084 3087 3089 3095 3098 3099 3094 3097 3102 3106 3108 3111 3114 3117 3120 3127 3130 3131 3134 3140 3143 3146 3151 3155 3159 3163 3169 3174 3178 3183 3187 3192
3083 3084 3085 3081 3077 3072 3068 3072 3073 3075 3076 3081 3081 3083 3087 3089 3087 3088 3092 3089 3094 3098 3102 3106 3110 3112 3117 3119 3122 3127 3128 3132 3137 3141 3145 3149 3153 3158 3163 3167 3172 3176 3181 3185
3078 3079 3080 3080 3074 3069 3065 3064 3067 3070 3075 3075 3077 3082 3084 3076 3076 3084 3091 3083 3086 3091 3096 3100 3103 3105 3111 3113 3116 3118 3121 3125 3129 3134 3139 3143 3148 3152 3156 3160 3165 3170 3174 3179
3072 3074 3076 3076 3074 3067 3064 3063 3063 3066 3070 3065 3065 3067 3068 3068 3078 3082 3078 3078 3079 3084 3089 3093 3096 3099 3102 3107 3111 3113 3115 3118 3122 3128 3133 3138 3143 3147 3150 3154 3159 3164 3169 3173
3069 3069 3069 3070 3071 3065 3059 3061 3063 3066 3066 3062 3063 3062 3066 3068 3070 3071 3073 3073 3075 3078 3082 3086 3090 3093 3097 3099 3102 3106 3110 3113 3118 3121 3126 3132 3137 3142 3146 3150 3154 3158 3162 3167
3068 3066 3064 3067 3067 3063 3058 3060 3063 3060 3058 3058 3058 3059 3062 3064 3066 3064 3069 3069 3071 3073 3075 3078 3082 3084 3087 3090 3094 3099 3103 3107 3111 3114 3119 3125 3131 3136 3139 3144 3147 3151 3155 3159
3068 3065 3063 3062 3059 3059 3055 3055 3054 3054 3053 3055 3054 3054 3054 3056 3057 3057 3064 3064 3064 3066 3068 3070 3074 3077 3080 3083 3086 3090 3094 3098 3103 3108 3112 3118 3123 3128 3133 3138 3142 3145 3149 3153
3065 3062 3059 3056 3054 3054 3049 3049 3048 3047 3048 3047 3049 3048 3048 3048 3050 3052 3057 3058 3058 3059 3061 3062 3066 3070 3072 3073 3076 3079 3084 3089 3095 3101 3105 3111 3116 3121 3126 3131 3136 3140 3143 3147
3064 3060 3055 3049 3046 3042 3042 3041 3039 3039 3038 3039 3041 3041 3040 3042 3045 3046 3050 3052 3053 3054 3055 3056 3057 3061 3064 3066 3069 3071 3075 3080 3086 3092 3097 3103 3108 3114 3119 3125 3130 3134 3138 3141
3060 3056 3051 3045 3041 3038 3036 3033 3031 3031 3030 3029 3032 3032 3033 3036 3040 3042 3043 3046 3048 3049 3049 3050 3051 3053 3055 3058 3060 3063 3066 3071 3076 3082 3089 3095 3100 3106 3112 3118 3122 3126 3130 3134